User: anonymous   Login
Location: Unspecified
(0.0000°N, 0.0000°E)
Time: 02:33:02
(UTC+00:00)
Language:

RAX-2 - Orbit

View from above orbital plane
View from above orbital plane
View from above satellite
View from above satellite

Ground track
Ground track

The orbit data is extracted from the following two-line orbital elements,

1 37853U 11061D   15241.90631949 +.00003042 +00000-0 +18962-3 0  9997
2 37853 101.6985 129.2124 0194664 220.2284 270.9694 14.96749678207646
Epoch (UTC): 29 August 2015 21:45:06
Eccentricity: 0.0194664
inclination: 101.6985°
perigee height: 441 km
apogee height: 712 km
right ascension of ascending node: 129.2124°
argument of perigee: 220.2284°
revolutions per day: 14.96749678
mean anomaly at epoch: 270.9694°
orbit number at epoch: 20764

The dashed part of the orbit path shows where the satellite is in the earth's shadow,  

DLR